Time,TemperatureF,DewpointF,PressureIn,WindDirection,WindDirectionDegrees,WindSpeedMPH,WindSpeedGustMPH,Humidity,HourlyPrecipIn,Conditions,Clouds,dailyrainin,SoftwareType,DateUTC
2013-07-20 00:01:00,58.0,44.0,30.30,WSW,240,9.0,14.0,60,0.00,,,0.00,,2013-07-20 06:01:00,
2013-07-20 00:11:00,58.0,44.0,30.30,WSW,240,9.0,14.0,60,0.00,,,0.00,,2013-07-20 06:11:00,
2013-07-20 00:21:00,58.0,45.0,30.30,SSW,213,10.0,14.0,61,0.00,,,0.00,,2013-07-20 06:21:00,
2013-07-20 00:32:00,58.0,45.0,30.30,SW,228,9.0,13.0,61,0.00,,,0.00,,2013-07-20 06:32:00,
2013-07-20 00:43:00,58.0,45.0,30.30,SW,228,9.0,13.0,61,0.00,,,0.00,,2013-07-20 06:43:00,
2013-07-20 00:52:00,58.0,44.0,30.30,SW,230,9.0,17.0,60,0.00,,,0.00,,2013-07-20 06:52:00,
2013-07-20 01:01:00,59.0,44.0,30.30,SSW,212,9.0,16.0,58,0.00,,,0.00,,2013-07-20 07:01:00,
2013-07-20 01:12:00,59.0,44.0,30.30,SSW,212,9.0,16.0,58,0.00,,,0.00,,2013-07-20 07:12:00,
2013-07-20 01:22:00,59.0,45.0,30.30,South,191,9.0,16.0,59,0.00,,,0.00,,2013-07-20 07:22:00,
2013-07-20 01:33:00,57.0,44.0,30.29,SW,230,9.0,15.0,62,0.00,,,0.00,,2013-07-20 07:33:00,
2013-07-20 01:44:00,57.0,44.0,30.29,SW,230,9.0,15.0,62,0.00,,,0.00,,2013-07-20 07:44:00,
2013-07-20 01:54:00,58.0,45.0,30.30,SSW,195,10.0,15.0,61,0.00,,,0.00,,2013-07-20 07:54:00,
2013-07-20 02:01:00,57.0,45.0,30.29,SW,217,9.0,15.0,63,0.00,,,0.00,,2013-07-20 08:01:00,
2013-07-20 02:11:00,57.0,45.0,30.29,SW,217,9.0,15.0,63,0.00,,,0.00,,2013-07-20 08:11:00,
2013-07-20 02:22:00,57.0,45.0,30.29,WSW,250,11.0,16.0,63,0.00,,,0.00,,2013-07-20 08:22:00,
2013-07-20 02:32:00,57.0,44.0,30.29,SW,227,12.0,17.0,62,0.00,,,0.00,,2013-07-20 08:32:00,
2013-07-20 02:44:00,57.0,44.0,30.29,SW,227,12.0,17.0,62,0.00,,,0.00,,2013-07-20 08:44:00,
2013-07-20 02:52:00,57.0,45.0,30.27,SSW,213,11.0,15.0,64,0.00,,,0.00,,2013-07-20 08:52:00,
2013-07-20 03:02:00,56.0,45.0,30.27,SSW,198,6.0,14.0,66,0.00,,,0.00,,2013-07-20 09:02:00,
2013-07-20 03:11:00,56.0,45.0,30.27,SSW,198,6.0,14.0,66,0.00,,,0.00,,2013-07-20 09:11:00,
2013-07-20 03:22:00,54.0,44.0,30.29,SSW,200,9.0,13.0,70,0.00,,,0.00,,2013-07-20 09:22:00,
2013-07-20 03:33:00,53.0,45.0,30.28,South,188,10.0,14.0,73,0.00,,,0.00,,2013-07-20 09:33:00,
2013-07-20 03:43:00,53.0,45.0,30.28,South,188,10.0,14.0,73,0.00,,,0.00,,2013-07-20 09:43:00,
2013-07-20 03:53:00,52.0,44.0,30.27,South,183,10.0,13.0,75,0.00,,,0.00,,2013-07-20 09:53:00,
2013-07-20 04:01:00,54.0,45.0,30.28,SSW,202,6.0,12.0,71,0.00,,,0.00,,2013-07-20 10:01:00,
2013-07-20 04:11:00,54.0,45.0,30.28,SSW,202,6.0,12.0,71,0.00,,,0.00,,2013-07-20 10:11:00,
2013-07-20 04:22:00,58.0,45.0,30.27,SW,225,8.0,12.0,63,0.00,,,0.00,,2013-07-20 10:22:00,
2013-07-20 04:32:00,55.0,45.0,30.28,SSW,207,7.0,11.0,68,0.00,,,0.00,,2013-07-20 10:32:00,
2013-07-20 04:42:00,55.0,45.0,30.28,SSW,207,7.0,11.0,68,0.00,,,0.00,,2013-07-20 10:42:00,
2013-07-20 04:52:00,53.0,44.0,30.27,South,172,7.0,12.0,71,0.00,,,0.00,,2013-07-20 10:52:00,
2013-07-20 05:01:00,56.0,45.0,30.26,SSW,194,2.0,6.0,66,0.00,,,0.00,,2013-07-20 11:01:00,
2013-07-20 05:11:00,56.0,45.0,30.26,SSW,194,2.0,6.0,66,0.00,,,0.00,,2013-07-20 11:11:00,
2013-07-20 05:22:00,53.0,44.0,30.27,South,182,5.0,10.0,72,0.00,,,0.00,,2013-07-20 11:22:00,
2013-07-20 05:32:00,56.0,44.0,30.27,SSW,213,10.0,13.0,65,0.00,,,0.00,,2013-07-20 11:32:00,
2013-07-20 05:43:00,56.0,44.0,30.27,SSW,213,10.0,13.0,65,0.00,,,0.00,,2013-07-20 11:43:00,
2013-07-20 05:52:00,51.0,43.0,30.26,SSW,193,8.0,15.0,75,0.00,,,0.00,,2013-07-20 11:52:00,
2013-07-20 06:01:00,50.0,43.0,30.28,South,187,5.0,13.0,78,0.00,,,0.00,,2013-07-20 12:01:00,
2013-07-20 06:11:00,50.0,43.0,30.28,South,187,5.0,13.0,78,0.00,,,0.00,,2013-07-20 12:11:00,
2013-07-20 06:22:00,52.0,45.0,30.29,SSW,199,6.0,10.0,76,0.00,,,0.00,,2013-07-20 12:22:00,
2013-07-20 06:32:00,51.0,44.0,30.27,South,187,9.0,13.0,78,0.00,,,0.00,,2013-07-20 12:32:00,
2013-07-20 06:52:00,54.0,45.0,30.28,South,182,4.0,15.0,72,0.00,,,0.00,,2013-07-20 12:52:00,
2013-07-20 07:01:00,57.0,45.0,30.29,SW,229,6.0,14.0,65,0.00,,,0.00,,2013-07-20 13:01:00,
2013-07-20 07:11:00,57.0,45.0,30.29,SW,229,6.0,14.0,65,0.00,,,0.00,,2013-07-20 13:11:00,
2013-07-20 07:22:00,59.0,46.0,30.28,SW,220,7.0,12.0,61,0.00,,,0.00,,2013-07-20 13:22:00,
2013-07-20 07:32:00,58.0,46.0,30.29,SSW,205,6.0,12.0,65,0.00,,,0.00,,2013-07-20 13:32:00,
2013-07-20 07:43:00,58.0,46.0,30.29,SSW,205,6.0,12.0,65,0.00,,,0.00,,2013-07-20 13:43:00,
2013-07-20 07:53:00,56.0,46.0,30.28,SSW,193,7.0,14.0,69,0.00,,,0.00,,2013-07-20 13:53:00,
2013-07-20 08:02:00,59.0,46.0,30.27,SSW,200,8.0,14.0,63,0.00,,,0.00,,2013-07-20 14:02:00,
2013-07-20 08:11:00,59.0,46.0,30.27,SSW,200,8.0,14.0,63,0.00,,,0.00,,2013-07-20 14:11:00,
2013-07-20 08:22:00,59.0,47.0,30.27,SSW,194,9.0,14.0,64,0.00,,,0.00,,2013-07-20 14:22:00,
2013-07-20 08:32:00,61.0,48.0,30.29,South,190,10.0,15.0,62,0.00,,,0.00,,2013-07-20 14:32:00,
2013-07-20 08:43:00,61.0,48.0,30.29,South,190,10.0,15.0,62,0.00,,,0.00,,2013-07-20 14:43:00,
2013-07-20 08:53:00,63.0,47.0,30.27,South,188,8.0,15.0,56,0.00,,,0.00,,2013-07-20 14:53:00,
2013-07-20 09:01:00,66.0,48.0,30.27,SSW,202,6.0,11.0,53,0.00,,,0.00,,2013-07-20 15:01:00,
2013-07-20 09:11:00,66.0,48.0,30.27,SSW,202,6.0,11.0,53,0.00,,,0.00,,2013-07-20 15:11:00,
2013-07-20 09:22:00,68.0,49.0,30.27,SW,224,9.0,13.0,50,0.00,,,0.00,,2013-07-20 15:22:00,
2013-07-20 09:33:00,70.0,49.0,30.29,South,182,7.0,14.0,47,0.00,,,0.00,,2013-07-20 15:33:00,
2013-07-20 09:44:00,70.0,49.0,30.29,South,182,7.0,14.0,47,0.00,,,0.00,,2013-07-20 15:44:00,
2013-07-20 09:53:00,72.0,48.0,30.27,South,179,5.0,10.0,43,0.00,,,0.00,,2013-07-20 15:53:00,
2013-07-20 10:32:00,77.0,46.0,30.27,ENE,65,5.0,7.0,34,0.00,,,0.00,,2013-07-20 16:32:00,
2013-07-20 10:43:00,77.0,46.0,30.27,ENE,65,5.0,7.0,34,0.00,,,0.00,,2013-07-20 16:43:00,
2013-07-20 10:52:00,76.0,45.0,30.28,NE,34,7.0,13.0,33,0.00,,,0.00,,2013-07-20 16:52:00,
2013-07-20 11:02:00,77.0,46.0,30.27,NE,46,6.0,13.0,33,0.00,,,0.00,,2013-07-20 17:02:00,
2013-07-20 11:11:00,77.0,46.0,30.27,NE,46,6.0,13.0,33,0.00,,,0.00,,2013-07-20 17:11:00,
2013-07-20 11:22:00,77.0,46.0,30.27,ENE,60,1.0,13.0,33,0.00,,,0.00,,2013-07-20 17:22:00,
2013-07-20 11:32:00,77.0,45.0,30.26,NNE,18,6.0,16.0,32,0.00,,,0.00,,2013-07-20 17:32:00,
2013-07-20 11:43:00,77.0,45.0,30.26,NNE,18,6.0,16.0,32,0.00,,,0.00,,2013-07-20 17:43:00,
2013-07-20 11:53:00,76.0,45.0,30.26,NNE,24,8.0,16.0,33,0.00,,,0.00,,2013-07-20 17:53:00,
2013-07-20 12:01:00,75.0,45.0,30.24,NE,43,8.0,14.0,35,0.00,,,0.00,,2013-07-20 18:01:00,
2013-07-20 12:11:00,75.0,45.0,30.24,NE,43,8.0,14.0,35,0.00,,,0.00,,2013-07-20 18:11:00,
2013-07-20 12:24:00,76.0,46.0,30.26,ENE,59,9.0,11.0,34,0.00,,,0.00,,2013-07-20 18:24:00,
2013-07-20 12:35:00,73.0,44.0,30.25,NNE,25,14.0,21.0,36,0.00,,,0.00,,2013-07-20 18:35:00,
2013-07-20 12:44:00,73.0,44.0,30.25,NNE,25,14.0,21.0,36,0.00,,,0.00,,2013-07-20 18:44:00,
2013-07-20 12:58:00,72.0,46.0,30.26,NNE,15,3.0,14.0,39,0.00,,,0.00,,2013-07-20 18:58:00,
2013-07-20 13:04:00,74.0,48.0,30.26,ENE,57,11.0,16.0,40,0.00,,,0.00,,2013-07-20 19:04:00,
2013-07-20 13:14:00,74.0,48.0,30.26,ENE,57,11.0,16.0,40,0.00,,,0.00,,2013-07-20 19:14:00,
2013-07-20 13:24:00,77.0,46.0,30.27,NNE,21,10.0,17.0,34,0.00,,,0.00,,2013-07-20 19:24:00,
2013-07-20 13:33:00,77.0,47.0,30.25,NNE,14,13.0,18.0,35,0.00,,,0.00,,2013-07-20 19:33:00,
2013-07-20 13:43:00,77.0,47.0,30.25,NNE,14,13.0,18.0,35,0.00,,,0.00,,2013-07-20 19:43:00,
2013-07-20 13:56:00,77.0,46.0,30.24,NNE,17,9.0,17.0,34,0.00,,,0.00,,2013-07-20 19:56:00,
2013-07-20 14:04:00,77.0,42.0,30.25,NNE,32,11.0,19.0,29,0.00,,,0.00,,2013-07-20 20:04:00,
2013-07-20 14:14:00,77.0,42.0,30.25,NNE,32,11.0,19.0,29,0.00,,,0.00,,2013-07-20 20:14:00,
2013-07-20 14:23:00,75.0,44.0,30.24,ENE,59,11.0,15.0,33,0.00,,,0.00,,2013-07-20 20:23:00,
2013-07-20 14:33:00,76.0,42.0,30.23,NE,40,6.0,14.0,30,0.00,,,0.00,,2013-07-20 20:33:00,
2013-07-20 14:45:00,76.0,42.0,30.23,NE,40,6.0,14.0,30,0.00,,,0.00,,2013-07-20 20:45:00,
2013-07-20 14:57:00,77.0,41.0,30.23,East,86,8.0,13.0,28,0.00,,,0.00,,2013-07-20 20:57:00,
2013-07-20 15:02:00,76.0,46.0,30.25,ESE,117,8.0,14.0,35,0.00,,,0.00,,2013-07-20 21:02:00,
2013-07-20 15:13:00,76.0,46.0,30.25,ESE,117,8.0,14.0,35,0.00,,,0.00,,2013-07-20 21:13:00,
2013-07-20 15:25:00,73.0,47.0,30.23,ESE,103,8.0,14.0,39,0.00,,,0.00,,2013-07-20 21:25:00,
2013-07-20 15:33:00,71.0,49.0,30.24,ESE,117,2.0,7.0,46,0.00,,,0.00,,2013-07-20 21:33:00,
2013-07-20 15:44:00,71.0,49.0,30.24,ESE,117,2.0,7.0,46,0.00,,,0.00,,2013-07-20 21:44:00,
2013-07-20 16:05:00,72.0,48.0,30.23,ESE,109,3.0,4.0,42,0.01,,,0.01,,2013-07-20 22:05:00,
2013-07-20 16:14:00,72.0,48.0,30.23,ESE,109,3.0,4.0,42,0.01,,,0.01,,2013-07-20 22:14:00,
2013-07-20 16:25:00,72.0,49.0,30.22,ESE,109,0.0,1.0,45,0.01,,,0.01,,2013-07-20 22:25:00,
2013-07-20 16:33:00,72.0,49.0,30.22,NE,49,3.0,7.0,44,0.01,,,0.01,,2013-07-20 22:33:00,
2013-07-20 16:46:00,72.0,49.0,30.22,NE,49,3.0,7.0,44,0.01,,,0.01,,2013-07-20 22:46:00,
2013-07-20 17:36:00,63.0,50.0,30.25,NNE,22,5.0,13.0,62,0.06,,,0.07,,2013-07-20 23:36:00,
2013-07-20 18:06:00,65.0,49.0,30.24,NE,49,3.0,13.0,57,0.00,,,0.07,,2013-07-21 00:06:00,
2013-07-20 18:15:00,65.0,49.0,30.24,NE,49,3.0,13.0,57,0.00,,,0.07,,2013-07-21 00:15:00,
2013-07-20 18:22:00,67.0,50.0,30.22,NNE,19,6.0,12.0,54,0.00,,,0.07,,2013-07-21 00:22:00,
2013-07-20 18:43:00,68.0,50.0,30.22,NNE,29,3.0,6.0,53,0.00,,,0.07,,2013-07-21 00:43:00,
2013-07-20 18:56:00,69.0,50.0,30.23,NNW,343,6.0,9.0,50,0.00,,,0.07,,2013-07-21 00:56:00,
2013-07-20 19:05:00,69.0,50.0,30.20,North,349,3.0,7.0,51,0.00,,,0.07,,2013-07-21 01:05:00,
2013-07-20 19:11:00,69.0,50.0,30.20,North,349,3.0,7.0,51,0.00,,,0.07,,2013-07-21 01:11:00,
2013-07-20 19:25:00,70.0,52.0,30.19,North,349,0.0,4.0,52,0.00,,,0.07,,2013-07-21 01:25:00,
2013-07-20 19:35:00,67.0,52.0,30.20,North,349,1.0,3.0,58,0.00,,,0.07,,2013-07-21 01:35:00,
2013-07-20 19:44:00,-999.0,-99.9,30.20,North,349,1.0,3.0,-999,-99.99,,,-99.99,,2013-07-21 01:44:00,
2013-07-20 19:59:00,65.0,51.0,30.19,North,349,2.0,4.0,61,0.00,,,0.07,,2013-07-21 01:59:00,
2013-07-20 20:25:00,64.0,50.0,30.20,North,350,2.0,4.0,61,0.00,,,0.07,,2013-07-21 02:25:00,
2013-07-20 21:24:00,62.0,51.0,30.19,North,351,0.0,4.0,68,0.00,,,0.07,,2013-07-21 03:24:00,
2013-07-20 21:33:00,61.0,50.0,30.19,North,351,1.0,3.0,67,0.00,,,0.07,,2013-07-21 03:33:00,
2013-07-20 21:44:00,61.0,50.0,30.19,North,351,1.0,3.0,67,0.00,,,0.07,,2013-07-21 03:44:00,
2013-07-20 21:59:00,60.0,50.0,30.19,North,350,0.0,0.0,69,0.00,,,0.07,,2013-07-21 03:59:00,
2013-07-20 22:01:00,60.0,51.0,30.19,North,350,0.0,4.0,71,0.00,,,0.07,,2013-07-21 04:01:00,
2013-07-20 22:11:00,60.0,51.0,30.19,North,350,0.0,4.0,71,0.00,,,0.07,,2013-07-21 04:11:00,
2013-07-20 22:22:00,59.0,50.0,30.19,ENE,65,0.0,4.0,72,0.00,,,0.07,,2013-07-21 04:22:00,
2013-07-20 22:32:00,58.0,49.0,30.22,SE,134,3.0,11.0,73,0.00,,,0.07,,2013-07-21 04:32:00,
2013-07-20 22:43:00,58.0,49.0,30.22,SE,134,3.0,11.0,73,0.00,,,0.07,,2013-07-21 04:43:00,
2013-07-20 22:53:00,59.0,50.0,30.22,North,355,0.0,10.0,72,0.00,,,0.07,,2013-07-21 04:53:00,
2013-07-20 23:02:00,57.0,48.0,30.22,NW,325,2.0,5.0,72,0.00,,,0.07,,2013-07-21 05:02:00,
2013-07-20 23:11:00,57.0,48.0,30.22,NW,325,2.0,5.0,72,0.00,,,0.07,,2013-07-21 05:11:00,
2013-07-20 23:22:00,56.0,49.0,30.20,South,184,0.0,8.0,76,0.00,,,0.07,,2013-07-21 05:22:00,
2013-07-20 23:32:00,58.0,49.0,30.19,SW,217,5.0,9.0,71,0.00,,,0.07,,2013-07-21 05:32:00,
2013-07-20 23:42:00,58.0,49.0,30.19,SW,217,5.0,9.0,71,0.00,,,0.07,,2013-07-21 05:42:00,
2013-07-20 23:52:00,59.0,48.0,30.19,WSW,248,5.0,11.0,67,0.00,,,0.07,,2013-07-21 05:52:00,